Regional Weather Roundup
Issued by NWS

Home | Current Version | Previous Version | Graphics & Text | Print | Product List | Glossary On
Versions: 1 2 3 4 5 6 7 8 9 10 11 12 13 14 15 16 17 18 19 20 21 22 23 24 25 26 27 28 29 30 31 32 33 34 35 36 37 38 39 40 41 42 43 44 45 46 47 48 49 50
814
ASUS43 KDTX 240201
RWRMI
MICHIGAN HOURLY REGIONAL WEATHER ROUNDUP
NATIONAL WEATHER SERVICE DETROIT/PONTIAC MI
1000 PM EDT TUE MAY 23 2017

NOTE: "FAIR" INDICATES FEW OR NO CLOUDS BELOW 12,000 FEET WITH NO
SIGNIFICANT WEATHER AND/OR OBSTRUCTION TO VISIBILITY.

MIZ047>049-052>055-059>063-066>070-074>076-081>083-240300-
SOUTHEAST LOWER MICHIGAN

CITY           SKY/WX    TMP DP  RH WIND       PRES   REMARKS
ADRIAN         PTCLDY    59  54  83 NE7       29.72S
ALMA           LGT RAIN  57  56  95 NW5       29.74F
ANN ARBOR      CLOUDY    59  55  87 N5        29.72S
BAD AXE        RAIN      57  54  89 CALM      29.80R
CARO           RAIN      57  57  98 CALM      29.77F
DETROIT CITY   CLOUDY    65  47  52 CALM      29.72R
DETROIT        CLOUDY    64  52  64 N6        29.72F
FLINT          CLOUDY    57  53  86 N7        29.75S
GROSSE ILE     CLOUDY    63  52  68 CALM      29.71S
HILLSDALE      CLOUDY    57  52  82 NE9       29.71F
HOWELL         CLOUDY    57  54  88 N3        29.74S

CITY           SKY/WX    TMP DP  RH WIND       PRES   REMARKS
JACKSON        MOCLDY    58  55  90 NE7       29.73S
LAMBERTVILLE   CLOUDY    62  50  66 E3        29.71S
LANSING        CLOUDY    59  54  83 NE9       29.72F
LAPEER         CLOUDY    58  56  93 NE9       29.75F
MASON          CLOUDY    58  56  91 NE6       29.74R
MONROE         MOCLDY    62  49  63 CALM      29.71S
MT. CLEMENS    CLOUDY    64  52  65 N9        29.71F
PONTIAC        CLOUDY    59  53  80 VRB3      29.74R
PORT HOPE        N/A     57  53  86 SE6       29.77S
PORT HURON     CLOUDY    61  46  59 N5        29.75R
TRI CITIES     LGT RAIN  59  58  96 N5        29.76F
MIDLAND        DRIZZLE   58  56  96 CALM      29.76R
TROY           CLOUDY    63  51  65 N3        29.75R
SAGINAW HB     RAIN      59  52  77 E7        29.76S
$$
MIZ043>046-050>051-056>058-064>065-071>073-077>080-240300-
SOUTHWEST LOWER MICHIGAN

CITY           SKY/WX    TMP DP  RH WIND       PRES   REMARKS
BATTLE CREEK   MOCLDY    58  54  86 E6        29.72R
BENTON HARBOR  CLOUDY    59  54  83 CALM      29.70S
BIG RAPIDS     CLOUDY    56  52  86 CALM      29.74S
COLDWATER      CLOUDY    58  57  98 NE5       29.71F
FREMONT        CLOUDY    57  53  84 N3        29.73S
HOLLAND        MOCLDY    59  55  87 CALM      29.72S
GRAND RAPIDS   CLOUDY    58  57  97 N3        29.71F
IONIA          CLOUDY    57  56  94 NE5       29.71S
KALAMAZOO      CLOUDY    59  53  80 CALM      29.72S
LUDINGTON      LGT RAIN  52  52 100 CALM      29.74F
MARSHALL       CLOUDY    58  57  97 CALM      29.72R
MOUNT PLEASANT CLOUDY    56  54  92 CALM      29.75S
MUSKEGON       LGT RAIN  59  56  89 N6        29.73R
SOUTH HAVEN    CLOUDY    58  57  95 CALM      29.71S
$$
MIZ016>042-240300-
NORTHERN LOWER MICHIGAN

CITY           SKY/WX    TMP DP  RH WIND       PRES   REMARKS
ALPENA         CLOUDY    53  50  89 CALM      29.79S
BEAVER ISLAND  CLOUDY    54  45  71 NE3       29.79S
BELLAIRE       RAIN      56  53  91 CALM      29.77R
CADILLAC       DRIZZLE   55  54  97 NW3       29.76S
CHARLEVOIX     LGT RAIN  57  47  69 E5        29.80S
FRANKFORT      RAIN      53  51  90 CALM      29.77R
GAYLORD        LGT RAIN  56  49  77 E3        29.77S
GRAYLING       CLOUDY    54  53  97 CALM      29.78R
HARBOR SPRINGS CLOUDY    53  50  88 CALM      29.77S
HOUGHTON LAKE  RAIN      54  53  97 CALM      29.77S FOG
MANISTEE       LGT RAIN  56  55  97 NE5       29.75F
OSCODA         RAIN      52  51  95 N5        29.77F
PELLSTON       CLOUDY    57  44  62 CALM      29.78S
ROGERS CITY    CLOUDY    47  46  93 CALM      29.79F
TRAVERSE CITY  LGT RAIN  52  49  89 SW3       29.75S
$$
MIZ007>008-015-240300-
EASTERN UPPER MICHIGAN

CITY           SKY/WX    TMP DP  RH WIND       PRES   REMARKS
KINROSS        PTCLDY    49  43  80 NW6       29.80S
MACKINAC ISLAN CLOUDY    50  45  84 NE5       29.80S
NEWBERRY       CLOUDY    48  44  87 N7        29.81S
S. S. MARIE    CLOUDY    49  44  83 W3        29.79S
MUNISING         N/A     41  41 100 NW9       29.85S
$$
MIZ004>006-011>014-085-240300-
CENTRAL UPPER MICHIGAN

CITY           SKY/WX    TMP DP  RH WIND       PRES   REMARKS
MANISTIQUE     CLOUDY    53  43  70 N13       29.80R
ESCANABA       CLOUDY    50  46  86 N8        29.80S
MENOMINEE      LGT RAIN  52  50  93 NE6       29.79S
SAWYER-GWINN   CLOUDY    43  41  93 N8        29.85R
$$
MIZ001>003-009>011-084-240300-
WESTERN UPPER MICHIGAN

CITY           SKY/WX    TMP DP  RH WIND       PRES   REMARKS
IRON MOUNTAIN  CLOUDY    53  41  63 NE7       29.80R
HOUGHTON       CLOUDY    49  43  80 CALM      29.86S
COPPER HARBOR    N/A     45  42  89 N5        29.87S
IRONWOOD       CLOUDY    46  43  89 N3        29.86F
$$

ABBREVIATIONS USED IN REMARKS
   TC - TEMPERATURE IN CELSIUS
  WCI - WIND CHILL INDEX
   HX - HEAT INDEX
  VSB - VISIBILITY





USA.gov is the U.S. government's official web portal to all federal, state and local government web resources and services.